Date String (YYYY-MM-DD hh:mm:ss) UTC,Instrument flags,absolute air pressure of the measurement (hPa),sample flow rate (lpm),inlet stack bypass flow (lpm),air temperature of the measurement (°C),ambient temperature measured by the external sensor (°C),aerosol sample conditioner tube jacket temperature (°C),OPC LED temperature (°C),internal box temperature (°C),relative humidity of the measurement (%),span deviation,mass concentration of particles derived from Lorenz-Mie calculation of OPC scattering (μg/m³),mass concentration of particles derived from Lorenz-Mie calculation of OPC scattering (μg/m³),mass concentration of particles derived from Lorenz-Mie calculation of OPC scattering (μg/m³)
DateTimeUTC,F1_M11,P_M11,Q1_M11,Q2_M11,T1_M11,T2_M11,T3_M11,T4_M11,T5_M11,U1_M11,ZSPAN_M11,X0_M11,X2_M11,X1_M11
2023-12-13 05:00:00,SystemResetWarning,0837.0,5.00,000.00,019.3,018.4,000.0,027.6,020.6,21.9,0001.1,0017.68,0010.26,0009.01
2023-12-13 05:01:00,SystemResetWarning,0837.0,5.00,000.00,019.3,018.4,000.0,027.6,020.6,21.9,0001.7,0018.08,0010.27,0009.01
2023-12-13 05:02:00,SystemResetWarning,0837.0,5.00,000.00,019.3,018.4,000.0,027.6,020.6,21.9,0002.0,0017.26,0010.33,0009.03
2023-12-13 05:03:00,SystemResetWarning,0837.0,5.01,000.00,019.3,018.4,000.0,027.6,020.6,21.9,0001.2,0016.85,0010.29,0009.00
2023-12-13 05:04:00,SystemResetWarning,0837.0,5.00,000.00,019.3,018.4,000.0,027.6,020.5,21.9,-000.0,0016.89,0010.31,0009.00
2023-12-13 05:05:00,SystemResetWarning,0837.1,5.00,000.00,019.3,018.4,000.0,027.6,020.5,21.9,-000.5,0016.98,0010.30,0008.99
2023-12-13 05:06:00,SystemResetWarning,0837.1,5.00,000.00,019.3,018.4,000.0,027.6,020.5,21.9,-000.8,0016.95,0010.24,0008.97
2023-12-13 05:07:00,SystemResetWarning,0837.1,5.00,000.00,019.3,018.4,000.0,027.6,020.5,21.9,-000.9,0017.40,0010.23,0008.97
2023-12-13 05:08:00,SystemResetWarning,0837.1,5.01,000.00,019.3,018.4,000.0,027.6,020.5,21.9,-001.1,0017.39,0010.23,0008.98
2023-12-13 05:09:00,SystemResetWarning,0837.1,5.00,000.00,019.3,018.4,000.0,027.6,020.5,22.0,-001.4,0017.54,0010.26,0008.98
2023-12-13 05:10:00,SystemResetWarning,0837.1,5.00,000.00,019.3,018.4,000.0,027.6,020.5,21.9,-001.7,0018.09,0010.30,0009.00
2023-12-13 05:11:00,SystemResetWarning,0837.1,5.00,000.00,019.3,018.4,000.0,027.6,020.5,21.9,-002.1,0018.23,0010.27,0009.01
2023-12-13 05:12:00,SystemResetWarning,0837.1,5.01,000.00,019.3,018.4,000.0,027.6,020.5,21.9,-002.4,0017.59,0010.28,0009.00
2023-12-13 05:13:00,SystemResetWarning,0837.2,4.99,000.00,019.3,018.3,000.0,027.6,020.5,21.9,-002.3,0017.57,0010.29,0009.00
2023-12-13 05:14:00,SystemResetWarning,0837.2,5.00,000.00,019.3,018.3,000.0,027.6,020.5,22.0,-002.0,0017.54,0010.36,0009.03
2023-12-13 05:15:00,SystemResetWarning,0837.2,5.00,000.00,019.3,018.3,000.0,027.6,020.5,22.0,-001.4,0018.83,0010.37,0009.07
2023-12-13 05:16:00,SystemResetWarning,0837.2,5.00,000.00,019.3,018.3,000.0,027.6,020.5,22.0,-001.0,0018.51,0010.31,0009.06
2023-12-13 05:17:00,SystemResetWarning,0837.2,5.00,000.00,019.3,018.3,000.0,027.6,020.5,22.0,-000.9,0018.55,0010.39,0009.11
2023-12-13 05:18:00,SystemResetWarning,0837.2,5.01,000.00,019.3,018.3,000.0,027.6,020.5,22.0,-000.3,0018.88,0010.54,0009.16
2023-12-13 05:19:00,SystemResetWarning,0837.2,4.99,000.00,019.3,018.3,000.0,027.6,020.5,22.0,0000.9,0018.99,0010.58,0009.18
2023-12-13 05:20:00,SystemResetWarning,0837.1,4.99,000.00,019.3,018.3,000.0,027.6,020.5,22.0,0001.4,0019.08,0010.61,0009.20
2023-12-13 05:21:00,SystemResetWarning,0837.2,5.01,000.00,019.3,018.3,000.0,027.6,020.5,22.0,0001.3,0018.85,0010.63,0009.21
2023-12-13 05:22:00,SystemResetWarning,0837.2,5.01,000.00,019.3,018.3,000.0,027.6,020.5,22.0,0001.4,0019.23,0010.67,0009.23
2023-12-13 05:23:00,SystemResetWarning,0837.2,5.00,000.00,019.2,018.3,000.0,027.6,020.5,22.0,0001.2,0019.99,0010.67,0009.25
2023-12-13 05:24:00,SystemResetWarning,0837.1,5.00,000.00,019.2,018.3,000.0,027.5,020.5,22.0,0001.1,0021.08,0010.73,0009.29
2023-12-13 05:25:00,SystemResetWarning,0837.1,5.00,000.00,019.2,018.3,000.0,027.5,020.5,22.1,0000.2,0021.78,0010.79,0009.32
2023-12-13 05:26:00,SystemResetWarning,0837.1,4.99,000.00,019.2,018.3,000.0,027.5,020.5,22.1,-000.1,0021.08,0010.82,0009.35
2023-12-13 05:27:00,SystemResetWarning,0837.2,4.99,000.00,019.2,018.3,000.0,027.5,020.5,22.1,-000.0,0021.84,0010.89,0009.40
2023-12-13 05:28:00,SystemResetWarning,0837.2,5.00,000.00,019.2,018.3,000.0,027.5,020.5,22.1,0000.3,0022.53,0010.95,0009.43
2023-12-13 05:29:00,SystemResetWarning,0837.2,5.00,000.00,019.2,018.3,000.0,027.5,020.5,22.1,-000.2,0022.81,0010.88,0009.42
2023-12-13 05:30:00,SystemResetWarning,0837.2,5.00,000.00,019.2,018.3,000.0,027.5,020.4,22.1,-000.3,0023.93,0010.88,0009.42
2023-12-13 05:31:00,SystemResetWarning,0837.1,5.00,000.00,019.2,018.3,000.0,027.5,020.4,22.1,-000.3,0025.57,0010.94,0009.43
2023-12-13 05:32:00,SystemResetWarning,0837.1,5.00,000.00,019.2,018.3,000.0,027.5,020.5,22.1,0000.2,0025.83,0010.97,0009.43
2023-12-13 05:33:00,SystemResetWarning,0837.1,5.00,000.00,019.2,018.3,000.0,027.5,020.4,22.1,0000.2,0027.13,0010.96,0009.43
2023-12-13 05:34:00,SystemResetWarning,0837.1,5.00,000.00,019.2,018.3,000.0,027.5,020.5,22.1,0000.7,0026.66,0010.98,0009.44
2023-12-13 05:35:00,SystemResetWarning,0837.0,5.00,000.00,019.2,018.3,000.0,027.5,020.5,22.1,0001.0,0025.65,0011.04,0009.46
2023-12-13 05:36:00,SystemResetWarning,0837.0,5.00,000.00,019.2,018.3,000.0,027.5,020.4,22.1,0001.4,0024.55,0010.98,0009.47
2023-12-13 05:37:00,SystemResetWarning,0837.0,5.00,000.00,019.2,018.3,000.0,027.5,020.4,22.1,0001.7,0024.65,0011.01,0009.48
2023-12-13 05:38:00,SystemResetWarning,0837.0,5.00,000.00,019.2,018.3,000.0,027.5,020.4,22.1,0001.3,0024.43,0011.02,0009.46
2023-12-13 05:39:00,SystemResetWarning,0837.0,5.00,000.00,019.2,018.3,000.0,027.5,020.5,22.0,0001.5,0024.28,0011.05,0009.45
2023-12-13 05:40:00,SystemResetWarning,0837.0,5.01,000.00,019.2,018.3,000.0,027.5,020.5,22.0,0002.0,0023.63,0011.08,0009.44
2023-12-13 05:41:00,SystemResetWarning,0837.0,5.01,000.00,019.2,018.3,000.0,027.5,020.5,22.0,0002.1,0023.89,0011.09,0009.42
2023-12-13 05:42:00,SystemResetWarning,0837.1,5.01,000.00,019.2,018.3,000.0,027.5,020.5,22.0,0002.0,0022.43,0011.09,0009.43
2023-12-13 05:43:00,SystemResetWarning,0837.1,5.00,000.00,019.2,018.3,000.0,027.5,020.5,22.0,0002.4,0022.37,0011.10,0009.44
2023-12-13 05:44:00,SystemResetWarning,0837.1,4.99,000.00,019.2,018.3,000.0,027.5,020.5,22.0,0002.2,0021.13,0011.13,0009.45
2023-12-13 05:45:00,SystemResetWarning,0837.2,4.99,000.00,019.2,018.3,000.0,027.5,020.4,22.1,0002.3,0021.82,0011.17,0009.47
2023-12-13 05:46:00,SystemResetWarning,0837.2,5.00,000.00,019.2,018.3,000.0,027.5,020.4,22.0,0002.3,0022.09,0011.16,0009.46
2023-12-13 05:47:00,SystemResetWarning,0837.2,5.00,000.00,019.2,018.3,000.0,027.5,020.4,22.0,0002.6,0022.74,0011.16,0009.45
2023-12-13 05:48:00,SystemResetWarning,0837.2,5.01,000.00,019.2,018.3,000.0,027.5,020.5,22.0,0002.4,0022.39,0011.15,0009.42
2023-12-13 05:49:00,SystemResetWarning,0837.2,5.00,000.00,019.2,018.3,000.0,027.5,020.4,22.0,0002.7,0021.69,0011.14,0009.37
2023-12-13 05:50:00,SystemResetWarning,0837.2,5.00,000.00,019.2,018.3,000.0,027.5,020.4,22.0,0002.5,0021.42,0011.07,0009.35
2023-12-13 05:51:00,SystemResetWarning,0837.2,4.99,000.00,019.2,018.3,000.0,027.5,020.5,22.0,0002.1,0021.09,0010.99,0009.31
2023-12-13 05:52:00,SystemResetWarning,0837.2,5.00,000.00,019.2,018.3,000.0,027.5,020.4,22.0,0002.2,0020.13,0010.98,0009.31
2023-12-13 05:53:00,SystemResetWarning,0837.2,5.00,000.00,019.2,018.3,000.0,027.5,020.4,21.9,0002.1,0019.32,0010.89,0009.26
2023-12-13 05:54:00,SystemResetWarning,0837.2,5.00,000.00,019.2,018.3,000.0,027.5,020.5,22.0,0001.8,0018.83,0010.78,0009.23
2023-12-13 05:55:00,SystemResetWarning,0837.3,4.99,000.00,019.2,018.3,000.0,027.5,020.4,22.0,0001.8,0019.48,0010.74,0009.19
2023-12-13 05:56:00,SystemResetWarning,0837.2,5.00,000.00,019.2,018.3,000.0,027.5,020.4,22.0,0001.6,0018.75,0010.68,0009.16
2023-12-13 05:57:00,SystemResetWarning,0837.3,5.00,000.00,019.2,018.3,000.0,027.5,020.4,22.0,0001.7,0018.00,0010.59,0009.14
2023-12-13 05:58:00,SystemResetWarning,0837.2,5.01,000.00,019.2,018.3,000.0,027.5,020.4,22.0,0001.2,0017.11,0010.50,0009.10
2023-12-13 05:59:00,SystemResetWarning,0837.2,5.00,000.00,019.2,018.3,000.0,027.5,020.4,22.0,0001.1,0017.08,0010.48,0009.07
